N0RAP Weather Reports


Display with metric or nautical units.
time (UTC)temp
F
wind
direction
speed
MPH
gust
MPH
rain 1hr
in
rain 24hr
in
rain mn
in
humidity
%
barometer
mb
20260906211551 83 146 1.0 9.0 0.00 0.00 0.00 38 1025.8
20260906210112 82 99 3.0 11.0 0.00 0.00 0.00 40 1025.9
20260906204556 82 112 3.0 12.0 0.00 0.00 0.00 38 1026.1
20260906203053 82 81 3.0 11.0 0.00 0.00 0.00 42 1026.3
20260906201628 81 56 0.0 9.0 0.00 0.00 0.00 43 1026.3
20260906200053 80 57 1.0 11.0 0.00 0.00 0.00 41 1026.3
20260906194603 80 46 1.0 10.0 0.00 0.00 0.00 41 1026.4
20260906193053 79 48 3.0 10.0 0.00 0.00 0.00 40 1026.4
20260906191606 79 55 3.0 10.0 0.00 0.00 0.00 38 1026.8
20260906190054 80 62 2.0 7.0 0.00 0.00 0.00 38 1026.9
20260906184554 82 126 1.0 7.0 0.00 0.00 0.00 37 1027.4
20260906183100 79 84 1.0 5.0 0.00 0.00 0.00 41 1027.7
20260906181624 79 63 2.0 5.0 0.00 0.00 0.00 39 1027.9
20260906180055 79 226 2.0 7.0 0.00 0.00 0.00 39 1028.1
20260906174554 77 0 1.0 6.0 0.00 0.00 0.00 42 1028.3
20260906173103 78 60 2.0 6.0 0.00 0.00 0.00 39 1028.3
20260906171553 78 0 0.0 7.0 0.00 0.00 0.00 42 1028.4
20260906170053 77 0 2.0 5.0 0.00 0.00 0.00 43 1028.5
20260906164558 77 225 1.0 5.0 0.00 0.00 0.00 41 1028.5
20260906163105 76 0 0.0 6.0 0.00 0.00 0.00 44 1028.6
20260906161611 75 101 0.0 5.0 0.00 0.00 0.00 43 1028.5
20260906160053 75 30 1.0 4.0 0.00 0.00 0.00 41 1028.6
20260906154559 74 47 1.0 4.0 0.00 0.00 0.00 42 1028.5
20260906153053 72 39 1.0 3.0 0.00 0.00 0.00 42 1028.4
20260906151554 72 38 1.0 5.0 0.00 0.00 0.00 45 1028.3
20260906150059 70 27 2.0 4.0 0.00 0.00 0.00 46 1028.4
20260906144557 69 52 1.0 4.0 0.00 0.00 0.00 49 1028.1
20260906143055 68 18 0.0 3.0 0.00 0.00 0.00 51 1028.1
20260906141601 66 0 0.0 1.0 0.00 0.00 0.00 55 1028.0
20260906140104 63 0 0.0 2.0 0.00 0.00 0.00 59 1028.0
20260906134604 62 17 0.0 2.0 0.00 0.00 0.00 59 1028.0
20260906133057 61 37 0.0 2.0 0.00 0.00 0.00 60 1027.9
20260906131558 60 25 0.0 3.0 0.00 0.00 0.00 61 1027.7
20260906130109 60 17 0.0 1.0 0.00 0.00 0.00 61 1027.6
20260906124555 60 37 0.0 2.0 0.00 0.00 0.00 60 1027.5
20260906123053 60 8 0.0 1.0 0.00 0.00 0.00 59 1027.6
20260906121607 61 16 0.0 3.0 0.00 0.00 0.00 58 1027.6
20260906120056 61 8 0.0 3.0 0.00 0.00 0.00 57 1027.4
20260906114609 61 22 0.0 3.0 0.00 0.00 0.00 58 1027.1
20260906113113 60 22 0.0 2.0 0.00 0.00 0.00 58 1027.2
20260906111606 59 0 0.0 1.0 0.00 0.00 0.00 60 1027.0
20260906104559 58 0 0.0 1.0 0.00 0.00 0.00 64 1027.1
20260906103053 59 23 0.0 1.0 0.00 0.00 0.00 63 1027.2
20260906101556 60 0 0.0 1.0 0.00 0.00 0.00 62 1027.2
20260906100051 60 0 0.0 1.0 0.00 0.00 0.00 61 1027.3
20260906094553 61 0 0.0 1.0 0.00 0.00 0.00 61 1027.6
20260906093057 61 23 0.0 1.0 0.00 0.00 0.00 63 1027.4
20260906091555 61 0 0.0 1.0 0.00 0.00 0.00 64 1027.4
20260906090054 62 0 0.0 1.0 0.00 0.00 0.00 65 1027.2
20260906084550 62 0 0.0 1.0 0.00 0.00 0.00 67 1027.2
20260906083054 62 0 0.0 1.0 0.00 0.00 0.00 67 1027.4
20260906081556 63 0 0.0 3.0 0.00 0.00 0.00 69 1027.3
20260906080055 61 0 0.0 0.0 0.00 0.00 0.00 75 1027.4
20260906074553 61 0 0.0 0.0 0.00 0.00 0.00 74 1027.4
20260906073058 62 0 0.0 1.0 0.00 0.00 0.00 73 1027.7
20260906071559 61 0 0.0 0.0 0.00 0.00 0.00 74 1027.6
20260906070059 61 0 0.0 2.0 0.00 0.00 0.00 73 1027.8
20260906064555 62 0 0.0 0.0 0.00 0.00 0.00 73 1027.9
20260906063055 62 0 1.0 4.0 0.00 0.00 0.00 73 1027.9
20260906061553 62 0 0.0 1.0 0.00 0.00 0.00 73 1027.7
20260906060122 61 0 0.0 1.0 0.00 0.00 0.00 74 1027.6
20260906054554 61 90 0.0 1.0 0.00 0.00 0.00 74 1027.6
20260906053051 61 0 0.0 0.0 0.00 0.00 0.00 75 1027.6
20260906051557 61 0 0.0 0.0 0.00 0.00 0.00 74 1027.7
20260906050112 61 0 0.0 0.0 0.00 0.00 0.00 75 1027.8
20260906044552 62 0 0.0 0.0 0.00 0.00 0.00 74 1027.8
20260906043100 62 0 0.0 0.0 0.00 0.00 0.00 74 1027.9
20260906041554 63 0 0.0 1.0 0.00 0.00 0.00 73 1028.1
20260906040055 64 0 0.0 0.0 0.00 0.00 0.00 72 1028.0
20260906034558 65 0 0.0 1.0 0.00 0.00 0.00 71 1028.0
20260906033056 65 38 0.0 4.0 0.00 0.00 0.00 71 1028.0
20260906031627 66 99 0.0 4.0 0.00 0.00 0.00 70 1027.9
20260906030053 67 93 0.0 4.0 0.00 0.00 0.00 68 1027.7
20260906024603 67 0 2.0 6.0 0.00 0.00 0.00 68 1027.4
20260906023107 68 133 0.0 6.0 0.00 0.00 0.00 66 1027.4
20260906021551 69 105 1.0 7.0 0.00 0.00 0.00 64 1027.3
20260906020056 69 58 1.0 3.0 0.00 0.00 0.00 42 1027.0
20260906014554 69 25 0.0 1.0 0.00 0.00 0.00 41 1026.6
20260906013053 70 351 0.0 1.0 0.00 0.00 0.00 41 1026.6
20260906011558 71 0 0.0 0.0 0.00 0.00 0.00 39 1026.7
20260906010051 73 0 0.0 1.0 0.00 0.00 0.00 37 1026.9
20260906004600 74 302 0.0 3.0 0.00 0.00 0.00 36 1027.0
20260906003055 75 316 0.0 1.0 0.00 0.00 0.00 36 1027.1
20260906001554 76 0 0.0 1.0 0.00 0.00 0.00 35 1026.8
20260906000108 77 64 0.0 2.0 0.00 0.00 0.00 33 1026.8
20260905234558 77 111 0.0 1.0 0.00 0.00 0.00 32 1026.7
20260905233101 78 0 0.0 2.0 0.00 0.00 0.00 31 1026.6
20260905231608 78 341 0.0 1.0 0.00 0.00 0.00 32 1026.5
20260905230053 79 344 0.0 3.0 0.00 0.00 0.00 32 1026.6
20260905224553 78 8 0.0 2.0 0.00 0.00 0.00 32 1026.6
20260905223054 77 270 0.0 2.0 0.00 0.00 0.00 34 1026.9
20260905221603 78 265 1.0 4.0 0.00 0.00 0.00 31 1026.8
20260905220100 76 360 1.0 3.0 0.00 0.00 0.00 34 1026.7
20260905214604 75 0 0.0 3.0 0.00 0.00 0.00 35 1026.9
20260905213053 76 84 3.0 9.0 0.00 0.00 0.00 38 1027.3